Cook, MN

8:01 AM CDT on August 23, 2017 (GMT -0500)
Cook Municipal

Weather History for KCQM - January, 2013

Change the Weather History Date:

Wednesday, January 23, 2013

  Actual Average Record
Temperature  
Mean Temperature -14 °F -  
Max Temperature -2 °F 16 °F 35 °F (2015)
Min Temperature -27 °F -1 °F -34 °F (2011)
Degree Days  
Heating Degree Days 80    
Moisture  
Dew Point -18 °F    
Average Humidity 72    
Maximum Humidity 85    
Minimum Humidity 54    
Precipitation  
Precipitation 0.00 in - - ()
Sea Level Pressure  
Sea Level Pressure 30.22 in    
Wind  
Wind Speed 4 mph (WNW)    
Max Wind Speed 16 mph    
Max Gust Speed 23 mph    
Visibility 7 miles    
Events Snow    
Averages and records for this station are not official NWS values.
T = Trace of Precipitation, MM = Missing Value Source: NWS Daily Summary

Daily Weather History Graph

Daily Weather History Graph

Search for Another Location

Airport or City:

Trip Planner

Search our weather history database for the weather conditions in past years. The results will help you decide how hot, cold, wet, or windy it might be!

Date:

Astronomy

Jan. 23, 2013 Rise Set
Actual Time 7:48 AM CST 4:57 PM CST
Civil Twilight 7:13 AM CST 5:31 PM CST
Nautical Twilight 6:36 AM CST 6:09 PM CST
Astronomical Twilight 5:59 AM CST 6:46 PM CST
Moon 2:05 PM CST 5:03 AM CST
Length of Visible Light 10h 18m
Length of Day
9h 09m
Waxing Gibbous, 89% of the Moon is Illuminated
Jan 23
Waxing Gibbous
Jan 26
Full
Feb 3
Last Quarter
Feb 10
New
Feb 17
First Quarter

Hourly Weather History & Observations

Time (CST) Temp. Windchill Dew Point Humidity Pressure Visibility Wind Dir Wind Speed Gust Speed Precip Events Conditions
12:17 AM -13.0 °F - -18.4 °F 77% 30.08 in 10.0 mi Calm Calm - N/A   Scattered Clouds
12:37 AM -14.8 °F - -18.4 °F 84% 30.07 in 10.0 mi Calm Calm - N/A   Scattered Clouds
12:56 AM -18.4 °F - -23.8 °F 76% 30.06 in 10.0 mi Calm Calm - N/A   Clear
1:17 AM -18.4 °F - -22.0 °F 84% 30.06 in 10.0 mi Calm Calm - N/A   Clear
1:37 AM -18.4 °F - -23.8 °F 76% 30.06 in 10.0 mi Calm Calm - N/A   Clear
1:56 AM -20.2 °F - -25.6 °F 76% 30.06 in - Calm Calm - N/A   Clear
2:17 AM -18.4 °F - -23.8 °F 76% 30.06 in - Calm Calm - N/A   Scattered Clouds
2:37 AM -18.4 °F - -23.8 °F 76% 30.07 in - Calm Calm - N/A   Unknown
2:57 AM -14.8 °F - -18.4 °F 84% 30.05 in 10.0 mi Calm Calm - N/A   Overcast
3:16 AM -11.2 °F -20.6 °F -16.6 °F 77% 30.05 in 10.0 mi SW 3.5 mph - N/A   Overcast
3:37 AM -7.6 °F -18.8 °F -13.0 °F 77% 30.04 in 10.0 mi WSW 4.6 mph - N/A   Overcast
3:57 AM -7.6 °F -20.6 °F -11.2 °F 84% 30.04 in 10.0 mi WSW 5.8 mph - N/A   Overcast
4:16 AM -7.6 °F -18.8 °F -11.2 °F 84% 30.03 in 10.0 mi WSW 4.6 mph - N/A   Overcast
4:37 AM -5.8 °F -16.7 °F -11.2 °F 77% 30.03 in 10.0 mi WSW 4.6 mph - N/A   Overcast
4:57 AM -5.8 °F -14.5 °F -9.4 °F 84% 30.02 in 7.0 mi WSW 3.5 mph - N/A   Overcast
5:16 AM -5.8 °F -14.5 °F -9.4 °F 84% 30.02 in 3.0 mi SW 3.5 mph - N/A Snow Light Snow
5:37 AM -5.8 °F -16.7 °F -9.4 °F 84% 30.01 in 3.0 mi SW 4.6 mph - N/A Snow Light Snow
5:56 AM -5.8 °F -14.5 °F -9.4 °F 84% 30.01 in 3.0 mi WSW 3.5 mph - N/A Snow Light Snow
6:17 AM -4.0 °F -12.4 °F -9.4 °F 78% 30.01 in 2.0 mi WSW 3.5 mph - N/A Snow Light Snow
6:37 AM -5.8 °F -14.5 °F -9.4 °F 84% 30.01 in 2.5 mi WSW 3.5 mph - N/A Snow Light Snow
6:56 AM -5.8 °F -14.5 °F -9.4 °F 84% 30.01 in 3.0 mi West 3.5 mph - N/A Snow Light Snow
7:17 AM -5.8 °F -14.5 °F -9.4 °F 84% 30.00 in 2.5 mi WSW 3.5 mph - N/A Snow Light Snow
7:37 AM -5.8 °F - -9.4 °F 84% 30.00 in 4.0 mi Calm Calm - N/A Snow Light Snow
7:56 AM -5.8 °F -14.5 °F -9.4 °F 84% 30.00 in 4.0 mi West 3.5 mph - N/A Snow Light Snow
8:17 AM -5.8 °F -19.9 °F -9.4 °F 84% 30.01 in 7.0 mi West 6.9 mph - N/A Snow Light Snow
8:36 AM -4.0 °F -19.0 °F -7.6 °F 85% 30.02 in 7.0 mi West 8.1 mph - N/A   Overcast
8:57 AM -2.2 °F -18.0 °F -7.6 °F 78% 30.03 in 3.0 mi WNW 9.2 mph - N/A Snow Light Snow
9:17 AM -2.2 °F -22.2 °F -7.6 °F 78% 30.03 in 2.5 mi WNW 15.0 mph 18.4 mph N/A   Overcast
9:36 AM -2.2 °F -21.5 °F -9.4 °F 71% 30.04 in 2.5 mi WNW 13.8 mph 21.9 mph N/A   Haze
9:57 AM -2.2 °F -18.0 °F -9.4 °F 71% 30.06 in 7.0 mi WNW 9.2 mph 18.4 mph N/A   Mostly Cloudy
10:17 AM -2.2 °F -20.7 °F -9.4 °F 71% 30.07 in 2.0 mi NW 12.7 mph 21.9 mph N/A   Haze
10:36 AM -2.2 °F -19.9 °F -9.4 °F 71% 30.09 in 2.0 mi WNW 11.5 mph 18.4 mph N/A   Haze
10:57 AM -4.0 °F -23.0 °F -11.2 °F 71% 30.10 in 3.0 mi WNW 12.7 mph 18.4 mph N/A   Haze
11:17 AM -4.0 °F -24.5 °F -14.8 °F 60% 30.11 in 2.0 mi NW 15.0 mph 21.9 mph N/A   Haze
11:36 AM -5.8 °F -26.0 °F -14.8 °F 65% 30.13 in 2.0 mi NW 13.8 mph 21.9 mph N/A   Haze
11:57 AM -5.8 °F -27.5 °F -14.8 °F 65% 30.13 in 2.0 mi WNW 16.1 mph 23.0 mph N/A   Haze
12:17 PM -5.8 °F -25.2 °F -14.8 °F 65% 30.14 in 3.0 mi NW 12.7 mph 21.9 mph N/A   Haze
12:36 PM -5.8 °F -26.0 °F -16.6 °F 60% 30.16 in 4.0 mi WNW 13.8 mph 20.7 mph N/A   Haze
12:57 PM -5.8 °F -22.4 °F -16.6 °F 60% 30.17 in 10.0 mi NW 9.2 mph 17.3 mph N/A   Overcast
1:17 PM -5.8 °F -26.0 °F -16.6 °F 60% 30.18 in 10.0 mi NW 13.8 mph 19.6 mph N/A   Overcast
1:36 PM -5.8 °F -23.4 °F -16.6 °F 60% 30.20 in 10.0 mi NNW 10.4 mph 18.4 mph N/A   Overcast
1:57 PM -5.8 °F -24.4 °F -16.6 °F 60% 30.21 in 10.0 mi NW 11.5 mph 19.6 mph N/A   Mostly Cloudy
2:17 PM -5.8 °F -26.0 °F -18.4 °F 55% 30.23 in 10.0 mi NW 13.8 mph 20.7 mph N/A   Mostly Cloudy
2:37 PM -5.8 °F -24.4 °F -16.6 °F 60% 30.25 in 10.0 mi NNW 11.5 mph 16.1 mph N/A   Mostly Cloudy
2:57 PM -7.6 °F -25.7 °F -18.4 °F 59% 30.27 in 10.0 mi NW 10.4 mph 19.6 mph N/A   Scattered Clouds
3:16 PM -7.6 °F -26.6 °F -18.4 °F 59% 30.29 in 10.0 mi NW 11.5 mph 16.1 mph N/A   Scattered Clouds
3:37 PM -7.6 °F -25.7 °F -18.4 °F 59% 30.31 in 10.0 mi NNW 10.4 mph 17.3 mph N/A   Clear
3:57 PM -7.6 °F -23.4 °F -18.4 °F 59% 30.32 in 10.0 mi NNW 8.1 mph 18.4 mph N/A   Clear
4:16 PM -7.6 °F -23.4 °F -20.2 °F 54% 30.34 in 10.0 mi NNW 8.1 mph 18.4 mph N/A   Clear
4:37 PM -9.4 °F -25.6 °F -20.2 °F 59% 30.35 in 10.0 mi NNW 8.1 mph 16.1 mph N/A   Clear
4:56 PM -9.4 °F -22.7 °F -20.2 °F 59% 30.36 in 10.0 mi NNW 5.8 mph - N/A   Clear
5:17 PM -9.4 °F -18.6 °F -20.2 °F 59% 30.37 in 10.0 mi NNW 3.5 mph - N/A   Clear
5:36 PM -11.2 °F -23.0 °F -20.2 °F 64% 30.39 in 10.0 mi NW 4.6 mph - N/A   Clear
5:56 PM -11.2 °F -23.0 °F -20.2 °F 64% 30.41 in 10.0 mi NW 4.6 mph - N/A   Clear
6:17 PM -13.0 °F -25.1 °F -20.2 °F 70% 30.42 in 10.0 mi NW 4.6 mph - N/A   Clear
6:36 PM -13.0 °F -22.7 °F -20.2 °F 70% 30.44 in 10.0 mi WNW 3.5 mph - N/A   Clear
6:57 PM -14.8 °F -27.2 °F -20.2 °F 77% 30.46 in 10.0 mi WNW 4.6 mph - N/A   Clear
7:16 PM -14.8 °F -24.8 °F -20.2 °F 77% 30.46 in 10.0 mi NW 3.5 mph - N/A   Clear
7:36 PM -14.8 °F -27.2 °F -20.2 °F 77% 30.46 in 10.0 mi NW 4.6 mph - N/A   Clear
7:57 PM -14.8 °F -24.8 °F -22.0 °F 70% 30.48 in 10.0 mi NW 3.5 mph - N/A   Clear
8:16 PM -16.6 °F -26.8 °F -22.0 °F 76% 30.49 in 10.0 mi NNW 3.5 mph - N/A   Clear
8:37 PM -16.6 °F - -23.8 °F 70% 30.49 in 10.0 mi Calm Calm - N/A   Clear
8:56 PM -18.4 °F - -23.8 °F 76% 30.50 in 10.0 mi Calm Calm - N/A   Clear
9:17 PM -18.4 °F -28.9 °F -25.6 °F 70% 30.51 in - WNW 3.5 mph - N/A   Clear
9:36 PM -18.4 °F - -23.8 °F 76% 30.51 in - Calm Calm - N/A   Clear
9:57 PM -18.4 °F - -25.6 °F 70% 30.51 in - Calm Calm - N/A   Clear
10:16 PM -20.2 °F - -25.6 °F 76% 30.52 in - Calm Calm - N/A   Clear
10:36 PM -25.6 °F - -32.8 °F 69% 30.54 in - Calm Calm - N/A   Clear
10:57 PM -22.0 °F - -27.4 °F 76% 30.54 in - Calm Calm - N/A   Clear
11:16 PM -23.8 °F - -29.2 °F 76% 30.54 in - Calm Calm - N/A   Clear
11:36 PM -27.4 °F - -34.6 °F 69% 30.55 in - Calm Calm - N/A   Clear
11:57 PM -27.4 °F - -34.6 °F 69% 30.56 in - Calm Calm - N/A   Clear